Location: Esperanza
(33.8756°N, 117.7567°W)
Time: 11:52:47
(UTC+00:00)

Daily predictions for brighter satellites

Satellite Brightness Start Highest point End
(mag) Time Altitude Azimuth Time Altitude Azimuth Time Altitude Azimuth
Cosmos 2369 4.3 12:08:44 52° ENE 12:08:58 52° ENE 12:14:28 10° SE
Cosmos 1898 Rocket 4.3 12:14:12 46° NE 12:14:45 48° ENE 12:19:49 10° SE
Tiangong 0.8 12:29:07 19° E 12:29:07 19° E 12:30:08 10° ESE
Cosmos 372 Rocket 4.0 12:29:01 73° SE 12:29:01 73° SE 12:33:37 10° SSE
OAO 3 Rocket 4.0 12:30:37 40° SSE 12:30:45 40° SSE 12:35:08 10° E
Cosmos 967 Rocket 4.5 12:33:11 61° WSW 12:33:11 61° WSW 12:39:21 10° SSE
Cosmos 1937 Rocket 4.2 12:31:53 32° NNE 12:33:54 51° ENE 12:38:53 10° SSE
SL-16 R/B 4.5 12:29:19 10° SSW 12:30:10 14° SSW 12:30:10 14° SSW
Cosmos 2333 Rocket 4.2 12:30:20 10° N 12:34:57 24° ENE 12:39:30 10° ESE
USA 59 Rocket 0.4 12:36:56 63° NE 12:37:13 64° ENE 12:42:46 10° SE
NOSS 2-1 (D) 4.0 12:37:28 56° NE 12:37:51 58° ENE 12:43:14 10° SE
Cosmos 1892 Rocket 3.8 12:35:13 10° S 12:39:31 67° E 12:43:53 10° NNE
Aureole 1 Rocket 4.3 12:42:03 39° NW 12:44:59 66° WSW 12:52:14 10° S
Cosmos 2180 Rocket 4.5 12:46:12 48° NW 12:47:28 57° W 12:53:39 10° SSW
COSMOS 2455 2.7 12:47:28 46° NW 12:49:19 77° WSW 12:55:17 10° SSE
Cosmos 2026 Rocket 4.0 12:44:36 10° S 12:50:37 77° E 12:56:42 10° N
NOSS 2-1 (E) 4.0 12:50:25 45° N 12:51:30 62° ENE 12:56:55 10° SE
Cosmos 2322 Rocket 4.1 12:48:25 10° N 12:53:05 25° ENE 12:57:41 10° ESE
CZ-3 Stage 3 4.3 12:46:58 33° W 12:53:16 69° S 13:36:09 10° ESE
ATLAS 2AS CENTAUR R/B 3.9 12:48:10 10° S 12:54:49 43° ESE 13:01:18 10° NE
Centaur AC-119 4.1 12:53:06 25° SSW 12:55:03 33° S 12:59:34 10° ESE
Delta 2 Rocket 3.9 13:05:57 29° S 13:05:57 29° S 13:08:13 10° SE
NOSS 2-1 (C) 3.6 13:08:08 43° NW 13:09:29 73° WSW 13:15:07 10° SSE
Meteor 2-3 Rocket 3.9 13:07:16 10° SSW 13:12:47 48° WNW 13:18:16 10° N
Cosmos 2237 4.2 13:12:43 26° NW 13:15:51 58° WSW 13:21:25 10° S
Cosmos 158 Rocket 4.1 13:12:10 10° S 13:17:30 79° ESE 13:22:46 10° NNE
Cosmos 1092 Rocket 3.9 13:13:08 10° SSW 13:19:23 70° W 13:25:37 10° N
SKYMED 2 3.4 13:15:53 10° S 13:20:12 79° WSW 13:24:23 11° NNW
NOAA 12 4.1 13:15:28 10° N 13:20:36 56° WNW 13:25:43 10° SSW
SL-16 R/B 2.2 13:16:46 12° NNW 13:22:09 83° ENE 13:27:48 10° SSE
Meteor 1-26 Rocket 4.4 13:18:04 10° N 13:23:42 76° E 13:29:29 10° SSE
Cosmos 2058 Rocket 3.1 13:20:04 10° N 13:24:29 79° E 13:28:51 10° S
CZ-3 R/B 3.8 13:14:57 19° W 13:25:19 33° SW 13:32:05 10° SSE
Cosmos 1743 3.7 13:29:46 10° SSE 13:32:49 40° E 13:35:53 10° NNE
Meteor 2-20 4.4 13:31:06 10° NNW 13:37:06 61° W 13:43:02 10° S
SL-08 ROCKET BODY 4.4 13:34:17 10° S 13:40:07 82° E 13:45:58 10° N
BREEZE-M DEB (TANK) 2.9 13:41:51 20° WSW 13:43:27 40° NW 13:45:43 10° NE
Cosmos 2221 4.4 13:42:23 10° NNE 13:46:01 30° E 13:49:40 10° SE
Cosmos 2278 3.7 13:41:13 10° NNW 13:46:50 69° WSW 13:52:24 10° S
OAO 2 Rocket 3.3 13:44:17 14° W 13:48:46 86° N 13:53:54 10° E
Cosmos 1758 Rocket 3.5 13:44:48 10° S 13:49:13 75° W 13:53:36 10° N
Cosmos 1484 Rocket 2.4 13:45:58 10° N 13:49:17 57° WNW 13:52:34 10° SSW
Helios 1A Rocket 2.8 13:53:08 10° S 13:56:18 42° W 13:59:31 10° NNW
ISS -2.0 13:53:25 10° SSW 13:56:31 35° SE 13:59:39 10° ENE
[s.n.66875] 1.7 13:54:29 10° SW 13:56:59 63° SSE 13:59:31 10° ENE
[s.n.66873] 1.7 13:55:11 10° SW 13:57:41 65° SSE 14:00:13 10° ENE
[s.n.66876] 1.7 13:55:39 10° SW 13:58:10 65° SSE 14:00:42 10° ENE
Meteor 2-20 Rocket 4.4 13:52:53 10° NNW 13:58:28 56° W 14:04:02 10° S
[s.n.66874] 1.6 13:56:28 10° SW 13:58:58 67° SSE 14:01:30 10° ENE
[s.n.66872] 1.6 13:57:15 10° SW 13:59:46 69° SSE 14:02:19 10° ENE
[s.n.66871] 1.6 13:57:48 10° SW 14:00:19 70° SSE 14:02:52 10° ENE
[s.n.66870] 1.5 13:58:37 10° SW 14:01:08 72° SSE 14:03:42 10° ENE
[s.n.66869] 1.5 13:59:25 10° SW 14:01:57 73° SSE 14:04:30 10° ENE
[s.n.66868] 1.5 14:00:02 10° SW 14:02:34 75° SSE 14:05:07 10° ENE
[s.n.66867] 1.4 14:00:50 10° SW 14:03:22 76° SSE 14:05:56 10° ENE
Tiangong -0.2 14:01:27 10° W 14:03:42 19° SW 14:06:04 10° S
[s.n.66866] 1.4 14:01:34 10° SW 14:04:07 78° SSE 14:06:41 10° ENE
[s.n.66865] 1.4 14:02:08 10° SW 14:04:40 79° SSE 14:07:14 10° ENE
[s.n.66860] 1.4 14:02:48 10° WSW 14:05:21 81° SE 14:07:55 10° ENE
[s.n.66864] 1.3 14:03:26 10° WSW 14:05:59 82° SSE 14:08:33 10° ENE
Cosmos 405 Rocket 3.3 14:03:20 10° SW 14:06:06 26° WNW 14:08:54 10° NNW
[s.n.66863] 1.3 14:04:02 10° WSW 14:06:34 83° SSE 14:09:08 10° ENE
CZ-2D R/B 3.7 14:04:13 10° NNE 14:07:19 51° E 14:10:24 10° S
BREEZE M DEB (TANK) 3.5 14:06:06 11° NW 14:07:21 14° NNW 14:09:14 10° NNE
[s.n.66861] 1.3 14:04:52 10° WSW 14:07:25 85° SSE 14:09:59 10° ENE
[s.n.66862] 1.3 14:05:30 10° WSW 14:08:04 87° SSE 14:10:38 10° ENE
OAO 3 Copernicus 4.3 14:03:26 10° W 14:08:26 79° N 14:13:27 10° E
[s.n.66859] 1.3 14:06:13 10° WSW 14:08:47 88° SE 14:11:21 10° ENE
Cosmos 2344 4.1 14:00:43 10° SSW 14:09:25 70° ESE 14:16:37 10° NE
[s.n.66858] 1.3 14:06:53 10° WSW 14:09:27 90° SSE 14:12:01 10° ENE
COSMO-SKYMED 1 3.4 14:06:11 10° SSW 14:09:45 28° W 14:13:20 10° NW
[s.n.66857] 1.3 14:07:29 10° WSW 14:10:02 89° NNW 14:12:37 10° ENE
[s.n.66856] 1.2 14:08:02 10° WSW 14:10:35 88° WNW 14:13:10 10° ENE
[s.n.66855] 1.3 14:08:44 10° WSW 14:11:18 86° NNW 14:13:52 10° ENE
Cosmos 1626 Rocket 4.2 14:07:35 10° SW 14:11:33 33° W 14:15:32 10° NNW
[s.n.66854] 1.2 14:09:19 10° WSW 14:11:52 85° NNW 14:14:27 10° ENE
Cosmos 1707 4.1 14:09:45 10° NNE 14:12:36 32° E 14:15:26 10° SE
[s.n.66853] 1.2 14:10:03 10° WSW 14:12:36 84° NNW 14:15:11 10° ENE
Cosmos 2360 Rocket 2.2 14:07:17 10° NNW 14:12:54 74° WSW 14:18:28 10° SSE
[s.n.66852] 1.2 14:10:49 10° WSW 14:13:22 82° NNW 14:15:57 10° ENE
OAO 3 Rocket 3.1 14:09:00 10° W 14:13:40 87° NNW 14:18:25 10° E
Cosmos-2242 3.9 14:10:12 10° NNW 14:13:42 26° W 14:17:11 10° SSW
[s.n.66851] 1.2 14:11:20 10° WSW 14:13:54 81° NNW 14:16:29 10° ENE
[s.n.66850] 1.2 14:11:53 10° WSW 14:14:27 80° NNW 14:17:02 10° ENE
[s.n.66849] 1.2 14:12:36 10° WSW 14:15:10 78° NNW 14:17:45 10° ENE
Okean 1 4.2 14:12:35 10° NW 14:15:29 24° W 14:18:23 10° SW
[s.n.66848] 1.2 14:13:09 10° WSW 14:15:42 77° NNW 14:18:18 10° ENE
Cosmos 2333 Rocket 2.7 14:13:59 10° NW 14:19:20 41° WSW 14:24:38 10° S
SJ-12 4.0 14:15:36 10° NNE 14:19:24 73° ESE 14:23:12 10° S
BREEZE-M DEB (TANK) 4.0 14:16:12 10° WNW 14:20:37 30° SW 14:23:20 10° SSE
